Location: Newark
(27.9675°N, 86.8869°E)
Time: 05:38:56
(UTC+00:00)

Courier 1B Rocket - Pass Details

Date: 22 October 2019
Orbit: 920 x 1202 km, 28.2° (Epoch: 14 November)

Event Time Altitude Azimuth Distance (km) Brightness Sun altitude
Rises 03:20:32 0° 268° (W) 3,632 7.6 35.7°
Reaches altitude 10° 03:23:55 10° 251° (WSW) 2,726 7.2 36.3°
Maximum altitude 03:28:23 19° 208° (SSW) 2,196 7.2 37.0°
Drops below altitude 10° 03:33:03 10° 166° (SSE) 2,858 8.4 37.8°
Sets 03:36:44 0° 149° (SSE) 3,869 9.0 38.4°
